星链-1820 (STARLINK-1820 )

导读

STARLINK-1820是美国SpaceX公司星链(Starlink)卫星互联网星座中的一颗v1.0版本卫星,于2020年10月18日发射升空。作为星链星座组网的重要组成部分,它运行在550公里近地轨道,配备Ka波段通信能力,携带遮阳板降低光污染对天文观测的影响,依托霍尔推进器实现轨道调整,助力为全球提供低延迟高速卫星互联网接入服务。

Basic Information
目录编号:
46717
目录名称:
STARLINK-1820
国际标识:
2020-073AZ
轨道中心:
EARTH
卫星名称:
星链-1820
卫星全名:
星链-1820 (STARLINK-1820 )
卫星状态:
已陨落 最后检测时间 2026-04-05
发射日期:
2020-10-18 UTC
国别 :
美国 (US)
星等 :
--
Orbit Information
数据来源 国际轨道数据
星历时间: 2026-04-05T08:53:31+0800
轨道信息已过期74天
半长轴: 6538.249km
偏心率: 0.0007125
轨道倾角: 53.027°
近地点辐角 169.504°
升交点赤经 26.160°
平近点角 190.615°
近地点: 155.453km
远地点: 164.771km
周期: 87.690分钟
每日圈数: 16.421417
Detailed Information
固有亮度:
5
最大亮度:
2.5
卫星平台:
Starlink V1.0
覆盖范围:
全球
运营商:
太空探索技术公司
运营商所在国:
美国
制造商(研发单位):
太空探索技术公司
制造商所在国:
美国
使用方式:
暂无
Satellite Introduction
星链(Starlink)计划是由太空探索技术公司(SpaceX)提出的一个巨型低轨卫星互联网星座项目,计划在2019年至2024年间在太空搭建由约1.2万颗卫星组成的“星链”网络,其中1584颗将部署在地球上空550千米处的近地轨道,并从2020年开始工作。该卫星仍在工作。